ATLAS 5 CENTAUR DEB, 43974

Orbit data source: Space-Track

ATLAS 5 CENTAUR DEB, 43974 is space debris in HEO originally from a launch on Wed, 17 Sep 2014 UTC launched from the Air Force Eastern Test Range (AFETR). Debris objects in space refer to the collection of defunct objects orbiting the Earth. Examples of debris include non-operational satellites, rocket bodies, and fragments generated from explosions, collisions, or faulty payload assembly.

Loading next visibility...
Identifier
43974, 2014-055AD
Orbit
HEO
Country
Flag of USUS
Related business
Flag of USUnited Launch Alliance/Lockheed Martin (US)
Manufacturer
Unknown
Mission
Spacecraft
Bus & Motor
Unknown
Mass
Unknown
Launch date (UTC)
2014-09-17 (12 years ago)
Launch vehicle
Unknown
Launch site
Air Force Eastern Test Range (AFETR)
Object type
Payload
Rocket body
Debris
Shape & HBR
Unknown shape, 1.1 m
Radar Cross Section
Medium (>0.1 m² and <1 m²)

Expand to show TLE details & history
Last TLE update: 5 days ago

TLE from 5 days ago
0 ATLAS 5 CENTAUR DEB
1 43974U 14055AD  26231.29466429 -.00000174  00000-0  00000-0 0  9991
2 43974  20.4712 125.8813 4853687 191.1365 152.2331  1.84465663 53693
Epoch: 2026-08-19T07:04Z
TLE epoch observation values (Epoch: 2026-08-19T07:04:18.994Z)
Latitude
0.00003°
Longitude
52.17726°
Altitude
34,625.207 km
Speed
2.291 km/s
True Right ascension
08h 23m 37s
True Declination
0° 00' 00"
Sunlit
Object was in daylight at epoch
Visualization orbit readout
Latitude
Unknown
Longitude
Unknown
Altitude
Unknown
Speed
Unknown
Apparent Right ascension
Unknown
Apparent Declination
Unknown
Sunlit
N/A
Visualization observer readout
Local Sidereal Time
21:12:55
Azimuth
Unknown
Elevation
Unknown
Doppler factor
Unknown
Orbital elements
Apogee altitude
35,339.751 km
Perigee altitude
8,075.736 km
Semi-major axis
28,085.881 km
Eccentricity
0.48537
Inclination
20.4712°
RAAN
125.8813°
Arg. of periapsis
191.1365°
True anomaly
168.86684°
Mean anomaly
152.2331°
Eccentric anomaly
161.19669°
Mean motion
0.46112 °/min
Orbital period
780.71 mins
BSTAR
0
Loading maneuver chart data...
Computing Atmospheric mass density...

Documentation

Showing up to 5 results
|